This is the latest recevied weather packets stored in our database for station/object K6JWN. If no packets are shown the sender has not sent any weather packets the latest 1 day(s).
| Time | Temp. | Humidity | Pressure | Rain* | Wind** | Luminosity | Snow |
|---|---|---|---|---|---|---|---|
| 1778080157 | 14.44° C | 74% | 1019.9 hPa | 0 mm | - | - | - |
| 1778079557 | 14.44° C | 75% | 1019.8 hPa | 0 mm | - | - | - |
| 1778077757 | 13.89° C | 76% | 1019.7 hPa | 0 mm | - | - | - |
| 1778076557 | 13.89° C | 77% | 1019.5 hPa | 0 mm | - | - | - |
| 1778074757 | 13.33° C | 78% | 1019.2 hPa | 0 mm | - | - | - |
| 1778074157 | 13.33° C | 79% | 1019.2 hPa | 0 mm | - | - | - |
| 1778071757 | 13.33° C | 78% | 1019.1 hPa | 0 mm | - | - | - |
| 1778063356 | 13.89° C | 77% | 1018.2 hPa | 0 mm | - | - | - |
| 1778061557 | 13.89° C | 77% | 1018.2 hPa | 0 mm | - | - | - |
| 1778059156 | 13.89° C | 76% | 1018.1 hPa | 0 mm | - | - | - |
| 1778057356 | 13.89° C | 76% | 1018.1 hPa | 0 mm | - | - | - |
| 1778056756 | 13.89° C | 76% | 1018.2 hPa | 0 mm | - | - | - |
| 1778055556 | 13.89° C | 77% | 1018.3 hPa | 0 mm | - | - | - |
| 1778054956 | 13.89° C | 78% | 1018.2 hPa | 0 mm | - | - | - |
| 1778054356 | 13.89° C | 78% | 1018.3 hPa | 0 mm | - | - | - |
| 1778053756 | 13.89° C | 77% | 1018.1 hPa | 0 mm | - | - | - |
| 1778052556 | 13.89° C | 77% | 1017.9 hPa | 0 mm | - | - | - |
| 1778051956 | 13.89° C | 77% | 1017.8 hPa | 0 mm | - | - | - |
| 1778051356 | 13.89° C | 77% | 1017.6 hPa | 0 mm | - | - | - |
| 1778050756 | 14.44° C | 77% | 1017.5 hPa | 0 mm | - | - | - |
| 1778048957 | 14.44° C | 76% | 1017.3 hPa | 0 mm | - | - | - |
| 1778048358 | 14.44° C | 76% | 1017.2 hPa | 0 mm | - | - | - |
| 1778046557 | 14.44° C | 76% | 1016.9 hPa | 0 mm | - | - | - |
| 1778043557 | 15° C | 74% | 1016.5 hPa | 0 mm | - | - | - |
| 1778041157 | 16.67° C | 73% | 1015.8 hPa | 0 mm | - | - | - |
* Rain latest hour (hover to see other rain measurements)
** Current wind speed in m/s (hover to see current wind gust speed)